Back to catalog

DELTA 1 DEB

AliveSSO
NORAD 42094·DEBRIS·🇺🇸 United States

Launched Dec 15, 1968 from Vandenberg Space Force Base

Loading…

Next Passes (next 24 hours)

TLE

StaleSource: Space-Track

Epoch: Aug 27, 2026, 10:09 UTC

1 42094U 68114W   26239.42326983  .00000017  00000-0  43452-3 0  9997
2 42094 101.5830 123.5566 0195315 219.7812 138.8790 12.37386112304840

Track DELTA 1 DEB in real time with AllMySat

Download on the App Store